Погода в Кулусутае

Россия / Забайкальский край     50°13′55″N   115°40′47″E
темп.,
°C
ветер,
м/с
пор.,
м/с
влажн.,
%
обл.,
%
осадки,
мм/ч
давл.,
гПа
погр.,
м
13 июня, вс
вс1300:00+18ссв225266 0.0 100611
03:00+17всв2256100 0.0 100611
06:00+16всв225612 0.0 100616
09:00+22вюв344046 0.0 1004390
12:00+26ююв343195 0.0 10031535
15:00+28юз3528100 0.0 10002399
18:00+25зсз10941100 0.0 999640
21:00+20с71361100 0.1 1001397
14 июня, пн
пн1400:00+17ссз51072100 0.3 1002260
03:00+17ссв4973100 0.8 1000211
06:00+17сз5874100 0.1 999257
09:00+17ссз81277100 0.1 1000484
12:00+15ссз6979100 0.4 1001359
15:00+20с6755100 2.1 999810
18:00+22с5838100 0.0 9981554
21:00+19св2249100 0.0 99914
15 июня, вт
вт1500:00+16сз335573 0.0 100017
03:00+14сз51150100 0.0 1001185
06:00+15сз61245100 0.0 1002401
09:00+17сз8114080 0.0 1003698
12:00+21сз81029100 0.0 10021587
15:00+23сз892581 0.0 10022344
18:00+23сз1092867 0.0 10022360
21:00+17сз912383 0.0 1006811
16 июня, ср
ср1600:00+14сз713345 0.0 1008473
03:00+11сз71337100 0.0 1009471
06:00+9з494950 0.0 1010290
09:00+13зсз79414 0.0 10091237
12:00+16зюз7103495 0.0 10062448
15:00+16зсз10123246 0.0 10052087
18:00+17зсз893238 0.0 10042053
21:00+14зсз7114890 0.0 1005665
17 июня, чт
чт1700:00+12зсз51157100 0.0 1005535
03:00+10сз496446 0.0 1005214
06:00+11с4966100 0.0 1005490
09:00+15ссз795263 0.0 10041311
12:00+17ссз8104296 0.1 10032084
15:00+17с8113679 0.1 10022076
18:00+19с6103533 0.0 10012191
21:00+15ссв33495 0.1 100115